Orbital Elements at Epoch 2459200.5 (2020-Dec-17.0) TDB
Reference: JPL 24 (heliocentric ecliptic J2000)
Element | Value | Uncertainty (1-sigma) | Units |
e | .1696546316936562 | 4.8737e-08 | |
a | 2.408492395414605 | 8.2461e-09 | au |
q | 1.999880505133568 | 1.1795e-07 | au |
i | 3.33487863942924 | 5.4134e-06 | deg |
node | 33.74330792648782 | 5.5073e-05 | deg |
peri | 10.90347724750104 | 5.638e-05 | deg |
M | 218.4473015801156 | 1.2146e-05 | deg |
tp | 2459737.324091700930 (2022-Jun-06.82409170) | 4.7519e-05 | TDB |
period | 1365.263079896096 3.74 | 7.0115e-06 1.92e-08 | d yr |
n | .2636854429751355 | 1.3542e-09 | deg/d |
Q | 2.817104285695641 | 9.6451e-09 | au |
|
| | Orbit Determination Parameters
Additional Information
|